カタログに戻る

HJ-2E

運用中科学SSO
NORAD 54035·PAYLOAD·🇨🇳 China

打ち上げ Oct 12, 2022 から Taiyuan Satellite Launch Center

Loading…

次のパス (今後24時間)

TLE

最新Source: Space-Track

元期: Sep 14, 2026, 14:37 UTC

1 54035U 22132A   26257.60929213  .00005585  00000-0  26204-3 0  9991
2 54035  97.3844 260.4004 0007389  71.9440 288.2599 15.20030386218026

AllMySatでHJ-2Eをリアルタイム追跡

Download on the App Store